Location: Penton Mewsey
(51.2167°N, 1.5167°W)
Time: 22:15:11
(UTC+00:00)

STARLINK-1104 - Pass Details

Date: 30 March 2020
Orbit: 549 x 550 km, 53.0° (Epoch: 24 May)

Event Time Altitude Azimuth Distance (km) Brightness Sun altitude
Rises 20:09:02 0° 289° (WNW) 2,727 9.0 -14.6°
Reaches altitude 10° 20:11:17 10° 286° (WNW) 1,831 7.6 -14.9°
Maximum altitude 20:15:23 58° 207° (SSW) 647 3.9 -15.5°
Enters shadow 20:17:19 28° 140° (SE) 1,039 4.5 -15.8°
